(247656) = 2002 XX26

Discovered at Anderson Mesa on 2002-12-05 by LONEOS.

Orbit

Orbit type: Main Belt

Note: WebGL enabled browser required.

epoch2023-09-13.0
epoch JD2460200.5
perihelion date2020-03-27.51616
perihelion JD2458936.01616
argument of perihelion (°)141.73280
ascending node (°)274.48980
inclination (°)14.85868
eccentricity0.1505551
perihelion distance (AU)2.2493689
Tisserand w.r.t. Jupiter3.3
ΔV w.r.t. Earth (km/sec)10.5
semimajor axis (AU)2.6480456
mean anomaly (°)289.22041
mean daily motion (°/day)0.22872610
aphelion distance (AU)3.047
period (years)4.31
P-vector [x]0.53532174
P-vector [y]0.69795293
P-vector [z]0.47570195
Q-vector [x]-0.80503062
Q-vector [y]0.59206280
Q-vector [z]0.03724691
absolute magnitude16.13
phase slope0.15
uncertainty0
referenceMPEC 2024-A48
observations used491
oppositions13
arc length (days)7759
first opposition used2002
last opposition used2024
residual rms (arc-secs)0.71
perturbers coarse indicatorM-v
perturbers precise indicator003Ek
first observation date used2002-10-06.0
last observation date used2024-01-03.0
computer nameMPCLINUX
JD of orbit computation2455941.253442
perihelion JD uncertainty (days)2.7069E-04
argument of perihelion uncertainty (°)7.9139E-05
ascending node uncertainty (°)3.8478E-05
inclination uncertainty (°)1.3026E-05
eccentricity uncertainty 9.3423E-08
perihelion distance uncertainty (AU)2.3408E-07
Minimum Orbit Intersection Distances (in AU)
for orbit epoch: 2460200.5, reference: E2024-A48
Mercury1.94188
Venus1.54141
Earth1.27944
Mars0.727
Jupiter2.28996
Saturn6.70265
Uranus15.736
Neptune27.4756

Observations

505 total observations over interval: 2002 10 06.33357 – 2024 01 03.083930
These data are available for download (format description).

Date (UT) J2000 RA J2000 Dec Magn Location Ref
2002 10 06.33357 02 29 39.83 +37 26 40.1 19.6   704 – Lincoln Laboratory ETS, New Mexico MPS 83087
2002 10 06.34941 02 29 39.21 +37 26 42.1 19.7   704 – Lincoln Laboratory ETS, New Mexico MPS 83087
2002 10 06.36525 02 29 38.65 +37 26 41.3 19.6   704 – Lincoln Laboratory ETS, New Mexico MPS 83087
2002 10 06.38112 02 29 38.08 +37 26 41.3 19.7   704 – Lincoln Laboratory ETS, New Mexico MPS 83087
2002 10 20.39316 02 19 11.31 +36 55 15.3 19.9   644 – Palomar Mountain/NEAT MPS 83087
2002 10 20.41417 02 19 10.16 +36 55 09.4 19.8   644 – Palomar Mountain/NEAT MPS 83087
2002 10 20.43517 02 19 08.97 +36 55 03.0 19.5   644 – Palomar Mountain/NEAT MPS 83087
2002 11 25.08809 01 50 59.64 +31 07 42.5 19.3   644 – Palomar Mountain/NEAT MPS 70097
2002 11 25.10933 01 50 59.09 +31 07 26.9 19.3   644 – Palomar Mountain/NEAT MPS 70097
2002 11 25.13087 01 50 58.51 +31 07 11.1 19.1   644 – Palomar Mountain/NEAT MPS 70097
2002 12 05.10460 01 48 31.03 +29 05 15.8 19.0 R 699 – Lowell Observatory-LONEOS MPS 68395
2002 12 05.12348 01 48 30.83 +29 05 01.0   699 – Lowell Observatory-LONEOS MPS 68395
2002 12 05.14232 01 48 30.86 +29 04 47.9   699 – Lowell Observatory-LONEOS MPS 68395
2002 12 05.16108 01 48 30.65 +29 04 34.7   699 – Lowell Observatory-LONEOS MPS 68395
2002 12 06.23703 01 48 26.93 +28 51 56.3 19.6   704 – Lincoln Laboratory ETS, New Mexico MPS 68395
2002 12 06.25175 01 48 26.89 +28 51 45.7 19.3   704 – Lincoln Laboratory ETS, New Mexico MPS 68395
2002 12 06.26663 01 48 26.84 +28 51 36.1 19.7   704 – Lincoln Laboratory ETS, New Mexico MPS 68395
2002 12 09.22308 01 48 29.40 +28 17 43.0 19.5 R 699 – Lowell Observatory-LONEOS MPS 68395
2002 12 09.23928 01 48 29.51 +28 17 30.8   699 – Lowell Observatory-LONEOS MPS 68395
2002 12 09.25547 01 48 29.59 +28 17 19.0   699 – Lowell Observatory-LONEOS MPS 68395
2002 12 09.27159 01 48 29.59 +28 17 07.5   699 – Lowell Observatory-LONEOS MPS 68395
2004 03 16.51874 10 56 44.83 -17 35 41.3 20.1 R E12 – Siding Spring Survey MPS 179267
2004 03 16.52682 10 56 44.33 -17 35 38.4 19.8 R E12 – Siding Spring Survey MPS 179267
2004 03 16.53491 10 56 43.75 -17 35 35.7 19.7 R E12 – Siding Spring Survey MPS 179267
2004 03 16.54295 10 56 43.45 -17 35 33.1 19.3 R E12 – Siding Spring Survey MPS 179267
2006 09 16.21728 22 50 50.53 +19 06 41.1 19.2 V 703 – Catalina Sky Survey MPS 179267
2006 09 16.22469 22 50 50.17 +19 06 39.3 19.3 V 703 – Catalina Sky Survey MPS 179267
2006 09 16.23207 22 50 49.63 +19 06 37.3 18.7 V 703 – Catalina Sky Survey MPS 179267
2006 09 16.23948 22 50 49.38 +19 06 36.8 19.0 V 703 – Catalina Sky Survey MPS 179267
2006 09 28.19524 22 40 59.08 +18 00 25.9 19.4 V 703 – Catalina Sky Survey MPS 180944
2006 09 28.20176 22 40 58.76 +18 00 23.7 19.9 V 703 – Catalina Sky Survey MPS 180944
2006 09 28.20825 22 40 58.47 +18 00 20.4 19.0 V 703 – Catalina Sky Survey MPS 180944
2006 09 28.21475 22 40 58.18 +18 00 16.2 19.6 V 703 – Catalina Sky Survey MPS 180944
2006 10 20.17854 22 31 25.42 +15 15 38.3 19.7   703 – Catalina Sky Survey MPS 184017
2006 10 20.18822 22 31 25.39 +15 15 33.5 19.5   703 – Catalina Sky Survey MPS 184017
2006 10 20.19789 22 31 25.28 +15 15 29.5 19.7   703 – Catalina Sky Survey MPS 184017
2006 10 20.20758 22 31 25.14 +15 15 23.1 19.4   703 – Catalina Sky Survey MPS 184017
2008 01 12.32196 09 34 51.34 -00 38 37.8 19.4 V 703 – Catalina Sky Survey MPS 234179
2008 01 12.32847 09 34 51.13 -00 38 39.6 19.8 V 703 – Catalina Sky Survey MPS 234179
2008 01 12.33495 09 34 50.70 -00 38 41.7 19.8 V 703 – Catalina Sky Survey MPS 234179
2008 01 12.34141 09 34 50.52 -00 38 43.3 19.9 V 703 – Catalina Sky Survey MPS 234179
2008 01 15.28757 09 32 38.51 -00 52 20.4 19.5   704 – Lincoln Laboratory ETS, New Mexico MPS 234179
2008 01 15.30056 09 32 37.86 -00 52 24.3 19.8   704 – Lincoln Laboratory ETS, New Mexico MPS 234179
2008 01 15.31356 09 32 37.20 -00 52 27.5 19.5   704 – Lincoln Laboratory ETS, New Mexico MPS 234179
2008 02 02.27825 09 15 59.83 -01 36 57.5 19.5 V 703 – Catalina Sky Survey MPS 236178
2008 02 02.28419 09 15 59.54 -01 36 58.0 19.6 V 703 – Catalina Sky Survey MPS 236178
2008 02 02.29017 09 15 59.22 -01 36 57.7 19.8 V 703 – Catalina Sky Survey MPS 236178
2008 02 02.29616 09 15 58.82 -01 36 57.5 19.6 V 703 – Catalina Sky Survey MPS 236178
2008 02 09.25692 09 08 53.80 -01 36 34.5 19.4 V 703 – Catalina Sky Survey MPS 237444
2008 02 09.26615 09 08 53.26 -01 36 34.3 19.6 V 703 – Catalina Sky Survey MPS 237444
2008 02 09.27536 09 08 52.65 -01 36 33.2 19.6 V 703 – Catalina Sky Survey MPS 237444
2008 02 09.28455 09 08 52.15 -01 36 33.1 19.8 V 703 – Catalina Sky Survey MPS 237444
2010 07 04.27961 21 15 56.36 -03 34 17.2 20.9 V 691 – Steward Observatory, Kitt Peak-Spacewatch MPS 337294
2010 07 04.29729 21 15 55.78 -03 34 11.3 20.5 V 691 – Steward Observatory, Kitt Peak-Spacewatch MPS 337294
2010 07 04.31496 21 15 55.20 -03 34 06.2 20.4 V 691 – Steward Observatory, Kitt Peak-Spacewatch MPS 337294
2010 08 04.90505 20 50 16.75 -01 59 33.5 19.4 V J75 – OAM Observatory, La Sagra MPS 341696
2010 08 04.91801 20 50 15.93 -01 59 32.9 18.8 V J75 – OAM Observatory, La Sagra MPS 341696
2010 08 04.93097 20 50 15.13 -01 59 32.2 19.4 V J75 – OAM Observatory, La Sagra MPS 341696
2010 08 14.422758 20 41 06.389 -01 59 07.19 19.81 r F51 – Pan-STARRS 1, Haleakala MPS 366754
2010 08 14.433821 20 41 05.759 -01 59 07.50 19.76 r F51 – Pan-STARRS 1, Haleakala MPS 366754
2010 09 05.17296 20 24 32.58 -02 32 46.4 19.6   704 – Lincoln Laboratory ETS, New Mexico MPS 347846
2010 09 05.18458 20 24 32.14 -02 32 47.7 19.6   704 – Lincoln Laboratory ETS, New Mexico MPS 347846
2010 09 05.18470 20 24 32.13 -02 32 47.1 19.9   704 – Lincoln Laboratory ETS, New Mexico MPS 347846
2010 09 05.19631 20 24 31.80 -02 32 47.8 20.2   704 – Lincoln Laboratory ETS, New Mexico MPS 347846
2010 09 05.19643 20 24 31.69 -02 32 47.8 20.1   704 – Lincoln Laboratory ETS, New Mexico MPS 347846
2010 09 05.20803 20 24 31.32 -02 32 50.8 20.0   704 – Lincoln Laboratory ETS, New Mexico MPS 347846
2010 09 05.20816 20 24 31.35 -02 32 50.5 20.0   704 – Lincoln Laboratory ETS, New Mexico MPS 347846
2010 09 05.21973 20 24 30.92 -02 32 50.9 19.9   704 – Lincoln Laboratory ETS, New Mexico MPS 347846
2010 09 05.21986 20 24 30.95 -02 32 52.7 19.5   704 – Lincoln Laboratory ETS, New Mexico MPS 347846
2010 10 11.13818 20 23 04.12 -03 43 37.9 20.4 V G96 – Mt. Lemmon Survey MPS 353595
2010 10 11.14456 20 23 04.30 -03 43 38.7 20.1 V G96 – Mt. Lemmon Survey MPS 353595
2010 10 11.15096 20 23 04.45 -03 43 38.8 20.6 V G96 – Mt. Lemmon Survey MPS 353595
2010 10 11.15736 20 23 04.59 -03 43 39.2 20.7 V G96 – Mt. Lemmon Survey MPS 353595
2011 11 24.46433 07 15 56.80 +24 26 47.5 19.6 V G96 – Mt. Lemmon Survey MPS 444736
2011 11 24.47185 07 15 56.66 +24 26 45.0 19.6 V G96 – Mt. Lemmon Survey MPS 444736
2011 11 24.47944 07 15 56.52 +24 26 42.2 19.6 V G96 – Mt. Lemmon Survey MPS 444736
2011 11 24.48704 07 15 56.34 +24 26 39.5 19.7 V G96 – Mt. Lemmon Survey MPS 444736
2011 11 30.47178 07 13 22.74 +23 51 48.6 19.6 V 691 – Steward Observatory, Kitt Peak-Spacewatch MPS 403709
2011 11 30.48957 07 13 22.12 +23 51 42.4 19.6 V 691 – Steward Observatory, Kitt Peak-Spacewatch MPS 403709
2011 11 30.50736 07 13 21.51 +23 51 36.1 19.7 V 691 – Steward Observatory, Kitt Peak-Spacewatch MPS 403709
2011 12 29.27559 06 47 03.97 +20 52 43.5 18.7   704 – Lincoln Laboratory ETS, New Mexico MPS 405799
2011 12 29.28902 06 47 03.03 +20 52 38.8 18.7   704 – Lincoln Laboratory ETS, New Mexico MPS 405799
2011 12 29.30260 06 47 02.09 +20 52 33.5 18.9   704 – Lincoln Laboratory ETS, New Mexico MPS 405799
2011 12 29.31608 06 47 01.14 +20 52 28.3 18.9   704 – Lincoln Laboratory ETS, New Mexico MPS 405799
2012 01 05.15204 06 39 20.33 +20 08 55.0 19.3 V 691 – Steward Observatory, Kitt Peak-Spacewatch MPS 407034
2012 01 05.16983 06 39 19.13 +20 08 48.3 19.2 V 691 – Steward Observatory, Kitt Peak-Spacewatch MPS 407034
2012 01 05.18763 06 39 17.93 +20 08 41.7 19.1 V 691 – Steward Observatory, Kitt Peak-Spacewatch MPS 407034
2012 01 11.49052 06 32 35.680 +19 29 42.61 18.8 z F51 – Pan-STARRS 1, Haleakala MPS 407458
2012 01 11.50275 06 32 34.916 +19 29 38.09 18.9 z F51 – Pan-STARRS 1, Haleakala MPS 407458
